Time,TemperatureF,DewpointF,PressureIn,WindDirection,WindDirectionDegrees,WindSpeedMPH,WindSpeedGustMPH,Humidity,HourlyPrecipIn,Conditions,Clouds,dailyrainin,SoftwareType,DateUTC
2013-03-16 00:02:00,56.0,37.1,29.98,NNW,335,0.0,0.0,49,0.00,,,0.00,WeatherCatV1.10B1784,2013-03-16 07:02:00,
2013-03-16 00:07:00,55.8,38.4,29.98,NNW,339,0.0,0.0,52,0.00,,,0.00,WeatherCatV1.10B1784,2013-03-16 07:07:00,
2013-03-16 00:12:00,55.5,38.6,29.99,NNW,339,0.0,0.0,53,0.00,,,0.00,WeatherCatV1.10B1784,2013-03-16 07:12:00,
2013-03-16 00:17:00,55.4,39.0,29.99,NNW,339,0.0,0.0,54,0.00,,,0.00,WeatherCatV1.10B1784,2013-03-16 07:17:00,
2013-03-16 00:22:00,55.1,39.7,29.99,ENE,76,0.0,3.0,56,0.00,,,0.00,WeatherCatV1.10B1784,2013-03-16 07:22:00,
2013-03-16 00:27:00,54.8,40.3,29.98,NNW,334,3.0,3.0,58,0.00,,,0.00,WeatherCatV1.10B1784,2013-03-16 07:27:00,
2013-03-16 00:32:00,54.5,40.5,29.98,NNW,337,0.0,1.0,59,0.00,,,0.00,WeatherCatV1.10B1784,2013-03-16 07:32:00,
2013-03-16 00:37:00,54.3,40.7,29.98,NNW,330,0.0,2.0,60,0.00,,,0.00,WeatherCatV1.10B1784,2013-03-16 07:37:00,
2013-03-16 00:42:00,54.4,40.8,29.98,NNW,330,0.0,0.0,60,0.00,,,0.00,WeatherCatV1.10B1784,2013-03-16 07:42:00,
2013-03-16 00:47:00,54.3,40.7,29.98,NNW,330,0.0,1.0,60,0.00,,,0.00,WeatherCatV1.10B1784,2013-03-16 07:47:00,
2013-03-16 00:52:00,54.3,40.7,29.98,NNW,332,2.0,3.0,60,0.00,,,0.00,WeatherCatV1.10B1784,2013-03-16 07:52:00,
2013-03-16 00:57:00,54.4,40.8,29.98,NNW,332,0.0,2.0,60,0.00,,,0.00,WeatherCatV1.10B1784,2013-03-16 07:57:00,
2013-03-16 01:02:00,54.4,40.8,29.98,NNW,336,0.0,0.0,60,0.00,,,0.00,WeatherCatV1.10B1784,2013-03-16 08:02:00,
2013-03-16 01:07:00,54.2,40.6,29.98,NNW,334,0.0,2.0,60,0.00,,,0.00,WeatherCatV1.10B1784,2013-03-16 08:07:00,
2013-03-16 01:12:00,54.0,40.4,29.98,NNW,334,0.0,0.0,60,0.00,,,0.00,WeatherCatV1.10B1784,2013-03-16 08:12:00,
2013-03-16 01:17:00,54.1,40.5,29.98,SSE,167,0.0,0.0,60,0.00,,,0.00,WeatherCatV1.10B1784,2013-03-16 08:17:00,
2013-03-16 01:22:00,54.0,40.4,29.98,SSE,154,0.0,0.0,60,0.00,,,0.00,WeatherCatV1.10B1784,2013-03-16 08:22:00,
2013-03-16 01:27:00,53.9,40.3,29.98,SSE,154,0.0,2.0,60,0.00,,,0.00,WeatherCatV1.10B1784,2013-03-16 08:27:00,
2013-03-16 01:32:00,53.7,40.6,29.98,SSE,154,0.0,0.0,61,0.00,,,0.00,WeatherCatV1.10B1784,2013-03-16 08:32:00,
2013-03-16 01:37:00,53.6,40.1,29.98,SSE,154,0.0,0.0,60,0.00,,,0.00,WeatherCatV1.10B1784,2013-03-16 08:37:00,
2013-03-16 01:42:00,53.4,40.3,29.98,SSE,154,0.0,0.0,61,0.00,,,0.00,WeatherCatV1.10B1784,2013-03-16 08:42:00,
2013-03-16 01:47:00,53.2,40.1,29.98,SSE,154,0.0,0.0,61,0.00,,,0.00,WeatherCatV1.10B1784,2013-03-16 08:47:00,
2013-03-16 01:52:00,53.1,40.0,29.98,SSE,154,0.0,1.0,61,0.00,,,0.00,WeatherCatV1.10B1784,2013-03-16 08:52:00,
2013-03-16 01:57:00,52.9,39.8,29.96,SSE,154,0.0,0.0,61,0.00,,,0.00,WeatherCatV1.10B1784,2013-03-16 08:57:00,
2013-03-16 02:02:00,52.8,39.7,29.96,SSE,154,0.0,0.0,61,0.00,,,0.00,WeatherCatV1.10B1784,2013-03-16 09:02:00,
2013-03-16 02:07:00,52.7,39.6,29.96,SSE,154,0.0,1.0,61,0.00,,,0.00,WeatherCatV1.10B1784,2013-03-16 09:07:00,
2013-03-16 02:12:00,52.6,39.5,29.97,SSE,154,0.0,1.0,61,0.00,,,0.00,WeatherCatV1.10B1784,2013-03-16 09:12:00,
2013-03-16 02:17:00,52.5,39.4,29.97,SSE,154,0.0,0.0,61,0.00,,,0.00,WeatherCatV1.10B1784,2013-03-16 09:17:00,
2013-03-16 02:22:00,52.6,39.5,29.97,SSE,154,0.0,0.0,61,0.00,,,0.00,WeatherCatV1.10B1784,2013-03-16 09:22:00,
2013-03-16 02:28:00,52.6,39.5,29.98,SSE,154,0.0,0.0,61,0.00,,,0.00,WeatherCatV1.10B1784,2013-03-16 09:28:00,
2013-03-16 02:33:00,52.6,39.1,29.98,SSE,154,0.0,0.0,60,0.00,,,0.00,WeatherCatV1.10B1784,2013-03-16 09:33:00,
2013-03-16 02:38:00,52.7,39.2,29.98,SSE,154,0.0,0.0,60,0.00,,,0.00,WeatherCatV1.10B1784,2013-03-16 09:38:00,
2013-03-16 02:43:00,52.8,38.9,29.97,SSE,154,0.0,0.0,59,0.00,,,0.00,WeatherCatV1.10B1784,2013-03-16 09:43:00,
2013-03-16 02:48:00,53.1,39.2,29.97,SSE,154,0.0,0.0,59,0.00,,,0.00,WeatherCatV1.10B1784,2013-03-16 09:48:00,
2013-03-16 02:53:00,53.2,39.2,29.97,SSE,154,0.0,1.0,59,0.00,,,0.00,WeatherCatV1.10B1784,2013-03-16 09:53:00,
2013-03-16 02:58:00,53.3,39.3,29.95,SSE,154,0.0,0.0,59,0.00,,,0.00,WeatherCatV1.10B1784,2013-03-16 09:58:00,
2013-03-16 03:03:00,53.2,39.2,29.95,SSE,154,0.0,0.0,59,0.00,,,0.00,WeatherCatV1.10B1784,2013-03-16 10:03:00,
2013-03-16 03:08:00,53.2,38.4,29.95,SSE,154,0.0,0.0,57,0.00,,,0.00,WeatherCatV1.10B1784,2013-03-16 10:08:00,
2013-03-16 03:13:00,53.3,38.5,29.95,SSE,154,0.0,0.0,57,0.00,,,0.00,WeatherCatV1.10B1784,2013-03-16 10:13:00,
2013-03-16 03:18:00,53.4,38.6,29.95,SSE,154,0.0,0.0,57,0.00,,,0.00,WeatherCatV1.10B1784,2013-03-16 10:18:00,
2013-03-16 03:23:00,53.6,37.8,29.95,NNW,327,0.0,2.0,55,0.00,,,0.00,WeatherCatV1.10B1784,2013-03-16 10:23:00,
2013-03-16 03:28:00,54.4,38.1,29.96,NNW,328,1.0,1.0,54,0.00,,,0.00,WeatherCatV1.10B1784,2013-03-16 10:28:00,
2013-03-16 03:33:00,55.1,39.2,29.96,NNW,340,1.0,1.0,55,0.00,,,0.00,WeatherCatV1.10B1784,2013-03-16 10:33:00,
2013-03-16 03:38:00,55.4,40.0,29.96,NNW,345,1.0,2.0,56,0.00,,,0.00,WeatherCatV1.10B1784,2013-03-16 10:38:00,
2013-03-16 03:43:00,55.4,40.4,29.96,NW,321,4.0,5.0,57,0.00,,,0.00,WeatherCatV1.10B1784,2013-03-16 10:43:00,
2013-03-16 03:48:00,55.0,40.5,29.96,NNW,335,3.0,7.0,58,0.00,,,0.00,WeatherCatV1.10B1784,2013-03-16 10:48:00,
2013-03-16 03:53:00,54.6,40.6,29.96,NNW,334,2.0,5.0,59,0.00,,,0.00,WeatherCatV1.10B1784,2013-03-16 10:53:00,
2013-03-16 03:58:00,54.6,40.1,29.95,NNW,334,3.0,6.0,58,0.00,,,0.00,WeatherCatV1.10B1784,2013-03-16 10:58:00,
2013-03-16 04:03:00,54.9,40.0,29.95,NNW,332,0.0,1.0,57,0.00,,,0.00,WeatherCatV1.10B1784,2013-03-16 11:03:00,
2013-03-16 04:08:00,55.0,39.1,29.95,NNW,332,0.0,0.0,55,0.00,,,0.00,WeatherCatV1.10B1784,2013-03-16 11:08:00,
2013-03-16 04:13:00,54.9,39.0,29.95,NNW,332,0.0,1.0,55,0.00,,,0.00,WeatherCatV1.10B1784,2013-03-16 11:13:00,
2013-03-16 04:18:00,54.7,38.9,29.95,NNW,330,2.0,2.0,55,0.00,,,0.00,WeatherCatV1.10B1784,2013-03-16 11:18:00,
2013-03-16 04:23:00,54.8,38.9,29.95,NNW,336,4.0,4.0,55,0.00,,,0.00,WeatherCatV1.10B1784,2013-03-16 11:23:00,
2013-03-16 04:28:00,55.3,38.9,29.95,NNW,341,3.0,4.0,54,0.00,,,0.00,WeatherCatV1.10B1784,2013-03-16 11:28:00,
2013-03-16 04:33:00,55.7,38.8,29.95,NNW,339,2.0,3.0,53,0.00,,,0.00,WeatherCatV1.10B1784,2013-03-16 11:33:00,
2013-03-16 04:38:00,55.9,38.5,29.95,NNW,336,4.0,4.0,52,0.00,,,0.00,WeatherCatV1.10B1784,2013-03-16 11:38:00,
2013-03-16 04:43:00,56.1,38.7,29.94,North,357,3.0,4.0,52,0.00,,,0.00,WeatherCatV1.10B1784,2013-03-16 11:43:00,
2013-03-16 04:48:00,56.2,38.3,29.94,NNW,341,2.0,5.0,51,0.00,,,0.00,WeatherCatV1.10B1784,2013-03-16 11:48:00,
2013-03-16 04:53:00,56.7,38.3,29.94,NNW,341,4.0,5.0,50,0.00,,,0.00,WeatherCatV1.10B1784,2013-03-16 11:53:00,
2013-03-16 04:58:00,56.9,37.9,29.94,NNW,344,4.0,5.0,49,0.00,,,0.00,WeatherCatV1.10B1784,2013-03-16 11:58:00,
2013-03-16 05:03:00,57.1,38.6,29.94,NNW,332,3.0,5.0,50,0.00,,,0.00,WeatherCatV1.10B1784,2013-03-16 12:03:00,
2013-03-16 05:08:00,57.0,38.5,29.94,NNW,339,4.0,5.0,50,0.00,,,0.00,WeatherCatV1.10B1784,2013-03-16 12:08:00,
2013-03-16 05:13:00,56.9,38.5,29.95,NNW,341,1.0,3.0,50,0.00,,,0.00,WeatherCatV1.10B1784,2013-03-16 12:13:00,
2013-03-16 05:18:00,56.7,38.3,29.95,NNW,331,2.0,3.0,50,0.00,,,0.00,WeatherCatV1.10B1784,2013-03-16 12:18:00,
2013-03-16 05:23:00,56.4,38.0,29.95,NNW,330,2.0,2.0,50,0.00,,,0.00,WeatherCatV1.10B1784,2013-03-16 12:23:00,
2013-03-16 05:28:00,56.3,37.9,29.95,NNW,331,2.0,2.0,50,0.00,,,0.00,WeatherCatV1.10B1784,2013-03-16 12:28:00,
2013-03-16 05:33:00,56.3,37.9,29.95,NNW,340,3.0,3.0,50,0.00,,,0.00,WeatherCatV1.10B1784,2013-03-16 12:33:00,
2013-03-16 05:38:00,56.4,38.0,29.95,NNW,327,5.0,6.0,50,0.00,,,0.00,WeatherCatV1.10B1784,2013-03-16 12:38:00,
2013-03-16 05:43:00,56.5,38.6,29.95,NNW,346,2.0,4.0,51,0.00,,,0.00,WeatherCatV1.10B1784,2013-03-16 12:43:00,
2013-03-16 05:48:00,56.6,39.2,29.95,NNW,337,3.0,4.0,52,0.00,,,0.00,WeatherCatV1.10B1784,2013-03-16 12:48:00,
2013-03-16 05:53:00,56.8,39.4,29.95,NNW,329,2.0,4.0,52,0.00,,,0.00,WeatherCatV1.10B1784,2013-03-16 12:53:00,
2013-03-16 05:58:00,56.7,39.8,29.94,NNW,339,2.0,4.0,53,0.00,,,0.00,WeatherCatV1.10B1784,2013-03-16 12:58:00,
2013-03-16 06:03:00,56.8,40.3,29.94,NNW,335,4.0,5.0,54,0.00,,,0.00,WeatherCatV1.10B1784,2013-03-16 13:03:00,
2013-03-16 06:08:00,56.7,40.2,29.94,NNW,348,2.0,4.0,54,0.00,,,0.00,WeatherCatV1.10B1784,2013-03-16 13:08:00,
2013-03-16 06:13:00,56.6,40.1,29.94,NNW,346,1.0,5.0,54,0.00,,,0.00,WeatherCatV1.10B1784,2013-03-16 13:13:00,
2013-03-16 06:18:00,56.6,40.6,29.94,NNW,339,1.0,2.0,55,0.00,,,0.00,WeatherCatV1.10B1784,2013-03-16 13:18:00,
2013-03-16 06:23:00,56.6,40.6,29.94,NE,50,1.0,3.0,55,0.00,,,0.00,WeatherCatV1.10B1784,2013-03-16 13:23:00,
2013-03-16 06:28:00,56.4,40.9,29.94,North,349,1.0,5.0,56,0.00,,,0.00,WeatherCatV1.10B1784,2013-03-16 13:28:00,
2013-03-16 06:33:00,56.1,41.1,29.94,NNW,348,0.0,2.0,57,0.00,,,0.00,WeatherCatV1.10B1784,2013-03-16 13:33:00,
2013-03-16 06:38:00,55.8,41.2,29.94,NNW,337,3.0,3.0,58,0.00,,,0.00,WeatherCatV1.10B1784,2013-03-16 13:38:00,
2013-03-16 06:43:00,55.5,41.4,29.95,North,1,0.0,1.0,59,0.00,,,0.00,WeatherCatV1.10B1784,2013-03-16 13:43:00,
2013-03-16 06:48:00,55.2,41.6,29.95,NNW,331,0.0,1.0,60,0.00,,,0.00,WeatherCatV1.10B1784,2013-03-16 13:48:00,
2013-03-16 06:53:00,55.0,41.4,29.95,NNW,336,2.0,2.0,60,0.00,,,0.00,WeatherCatV1.10B1784,2013-03-16 13:53:00,
2013-03-16 06:58:00,54.8,41.6,29.95,NNW,335,3.0,5.0,61,0.00,,,0.00,WeatherCatV1.10B1784,2013-03-16 13:58:00,
2013-03-16 07:03:00,55.1,41.9,29.95,NNW,348,4.0,5.0,61,0.00,,,0.00,WeatherCatV1.10B1784,2013-03-16 14:03:00,
2013-03-16 07:08:00,55.4,41.7,29.95,NNW,332,4.0,5.0,60,0.00,,,0.00,WeatherCatV1.10B1784,2013-03-16 14:08:00,
2013-03-16 07:13:00,55.6,41.5,29.95,NNW,327,4.0,4.0,59,0.00,,,0.00,WeatherCatV1.10B1784,2013-03-16 14:13:00,
2013-03-16 07:18:00,55.9,41.8,29.95,NNW,340,3.0,5.0,59,0.00,,,0.00,WeatherCatV1.10B1784,2013-03-16 14:18:00,
2013-03-16 07:23:00,56.0,41.9,29.95,NNW,331,2.0,3.0,59,0.00,,,0.00,WeatherCatV1.10B1784,2013-03-16 14:23:00,
2013-03-16 07:28:00,56.1,42.0,29.94,NNW,334,4.0,5.0,59,0.00,,,0.00,WeatherCatV1.10B1784,2013-03-16 14:28:00,
2013-03-16 07:33:00,56.1,42.0,29.94,NNE,33,1.0,5.0,59,0.00,,,0.00,WeatherCatV1.10B1784,2013-03-16 14:33:00,
2013-03-16 07:38:00,56.1,42.0,29.94,NW,326,1.0,5.0,59,0.00,,,0.00,WeatherCatV1.10B1784,2013-03-16 14:38:00,
2013-03-16 07:43:00,56.1,42.0,29.95,NNW,328,0.0,0.0,59,0.00,,,0.00,WeatherCatV1.10B1784,2013-03-16 14:43:00,
2013-03-16 07:48:00,56.1,42.0,29.95,NNW,329,0.0,0.0,59,0.00,,,0.00,WeatherCatV1.10B1784,2013-03-16 14:48:00,
2013-03-16 07:53:00,56.5,41.9,29.95,NNW,329,0.0,0.0,58,0.00,,,0.00,WeatherCatV1.10B1784,2013-03-16 14:53:00,
2013-03-16 07:58:00,56.7,42.5,29.96,NNW,335,4.0,4.0,59,0.00,,,0.00,WeatherCatV1.10B1784,2013-03-16 14:58:00,
2013-03-16 08:03:00,57.1,42.5,29.96,NNW,334,2.0,4.0,58,0.00,,,0.00,WeatherCatV1.10B1784,2013-03-16 15:03:00,
2013-03-16 08:08:00,57.2,42.6,29.96,North,358,1.0,2.0,58,0.00,,,0.00,WeatherCatV1.10B1784,2013-03-16 15:08:00,
2013-03-16 08:13:00,57.2,42.6,29.97,North,356,1.0,1.0,58,0.00,,,0.00,WeatherCatV1.10B1784,2013-03-16 15:13:00,
2013-03-16 08:18:00,57.3,43.1,29.97,NNW,342,4.0,4.0,59,0.00,,,0.00,WeatherCatV1.10B1784,2013-03-16 15:18:00,
2013-03-16 08:23:00,57.2,43.4,29.97,NNW,341,4.0,4.0,60,0.00,,,0.00,WeatherCatV1.10B1784,2013-03-16 15:23:00,
2013-03-16 08:28:00,56.7,43.0,29.97,NNW,337,3.0,5.0,60,0.00,,,0.00,WeatherCatV1.10B1784,2013-03-16 15:28:00,
2013-03-16 08:33:00,56.4,43.1,29.97,NNW,345,4.0,6.0,61,0.00,,,0.00,WeatherCatV1.10B1784,2013-03-16 15:33:00,
2013-03-16 08:39:00,56.6,43.3,29.97,NNW,341,1.0,3.0,61,0.00,,,0.00,WeatherCatV1.10B1784,2013-03-16 15:39:00,
2013-03-16 08:44:00,57.1,44.2,29.98,NNW,339,0.0,0.0,62,0.00,,,0.00,WeatherCatV1.10B1784,2013-03-16 15:44:00,
2013-03-16 08:49:00,57.5,43.7,29.98,NNW,339,0.0,0.0,60,0.00,,,0.00,WeatherCatV1.10B1784,2013-03-16 15:49:00,
2013-03-16 08:54:00,57.8,44.0,29.98,NNW,339,0.0,0.0,60,0.00,,,0.00,WeatherCatV1.10B1784,2013-03-16 15:54:00,
2013-03-16 08:59:00,58.3,44.9,29.98,NNW,339,0.0,0.0,61,0.00,,,0.00,WeatherCatV1.10B1784,2013-03-16 15:59:00,
2013-03-16 09:04:00,58.8,44.1,29.98,NNW,339,0.0,1.0,58,0.00,,,0.00,WeatherCatV1.10B1784,2013-03-16 16:04:00,
2013-03-16 09:09:00,59.5,44.3,29.98,NNW,339,0.0,1.0,57,0.00,,,0.00,WeatherCatV1.10B1784,2013-03-16 16:09:00,
2013-03-16 09:14:00,60.1,44.3,29.98,NNW,331,1.0,3.0,56,0.00,,,0.00,WeatherCatV1.10B1784,2013-03-16 16:14:00,
2013-03-16 09:19:00,60.6,44.3,29.98,NNW,338,0.0,2.0,55,0.00,,,0.00,WeatherCatV1.10B1784,2013-03-16 16:19:00,
2013-03-16 09:24:00,61.0,45.2,29.98,NW,325,0.0,2.0,56,0.00,,,0.00,WeatherCatV1.10B1784,2013-03-16 16:24:00,
2013-03-16 09:29:00,61.4,45.1,29.99,NNW,333,0.0,0.0,55,0.00,,,0.00,WeatherCatV1.10B1784,2013-03-16 16:29:00,
2013-03-16 09:34:00,61.9,45.1,29.99,NNW,333,0.0,0.0,54,0.00,,,0.00,WeatherCatV1.10B1784,2013-03-16 16:34:00,
2013-03-16 09:39:00,62.4,45.5,29.99,East,97,0.0,1.0,54,0.00,,,0.00,WeatherCatV1.10B1784,2013-03-16 16:39:00,
2013-03-16 09:44:00,62.8,45.9,30.00,East,97,0.0,1.0,54,0.00,,,0.00,WeatherCatV1.10B1784,2013-03-16 16:44:00,
2013-03-16 09:49:00,63.1,45.7,30.00,ENE,59,0.0,0.0,53,0.00,,,0.00,WeatherCatV1.10B1784,2013-03-16 16:49:00,
2013-03-16 09:50:00,57.4,44.1,29.98,NNW,338,1.0,0.0,61,0.00,,,0.00,WeatherCatV1.10B1784,2013-03-16 16:50:00,
2013-03-16 09:55:00,57.7,43.9,29.98,NNW,339,0.0,0.0,60,0.00,,,0.00,WeatherCatV1.10B1784,2013-03-16 16:55:00,
2013-03-16 10:00:00,58.2,45.2,29.98,NNW,339,0.0,0.0,62,0.00,,,0.00,WeatherCatV1.10B1784,2013-03-16 17:00:00,
2013-03-16 10:05:00,58.6,44.3,29.98,NNW,339,0.0,1.0,59,0.00,,,0.00,WeatherCatV1.10B1784,2013-03-16 17:05:00,
2013-03-16 10:10:00,59.3,45.0,29.98,NNW,339,0.0,1.0,59,0.00,,,0.00,WeatherCatV1.10B1784,2013-03-16 17:10:00,
2013-03-16 10:15:00,59.9,44.2,29.98,NNW,337,0.0,1.0,56,0.00,,,0.00,WeatherCatV1.10B1784,2013-03-16 17:15:00,
2013-03-16 10:20:00,60.5,44.2,29.98,NNW,336,1.0,2.0,55,0.00,,,0.00,WeatherCatV1.10B1784,2013-03-16 17:20:00,
2013-03-16 10:25:00,60.8,44.5,29.98,NNW,343,1.0,1.0,55,0.00,,,0.00,WeatherCatV1.10B1784,2013-03-16 17:25:00,
2013-03-16 10:30:00,61.3,44.5,29.99,NNW,339,1.0,2.0,54,0.00,,,0.00,WeatherCatV1.10B1784,2013-03-16 17:30:00,
2013-03-16 10:35:00,61.8,45.5,29.99,NNW,334,0.0,0.0,55,0.00,,,0.00,WeatherCatV1.10B1784,2013-03-16 17:35:00,
2013-03-16 10:40:00,62.2,46.3,29.99,NNW,333,0.0,0.0,56,0.00,,,0.00,WeatherCatV1.10B1784,2013-03-16 17:40:00,
2013-03-16 10:45:00,62.6,45.2,29.99,NE,51,0.0,0.0,53,0.00,,,0.00,WeatherCatV1.10B1784,2013-03-16 17:45:00,
2013-03-16 10:50:00,63.0,46.1,30.00,East,83,0.0,1.0,54,0.00,,,0.00,WeatherCatV1.10B1784,2013-03-16 17:50:00,
2013-03-16 10:55:00,63.1,45.7,30.00,ENE,72,0.0,0.0,53,0.00,,,0.00,WeatherCatV1.10B1784,2013-03-16 17:55:00,
2013-03-16 11:00:00,63.6,45.1,30.00,NNW,338,1.0,4.0,51,0.00,,,0.00,WeatherCatV1.10B1784,2013-03-16 18:00:00,
2013-03-16 11:05:00,63.6,45.1,30.00,NNW,338,1.0,4.0,51,0.00,,,0.00,WeatherCatV1.10B1784,2013-03-16 18:05:00,
2013-03-16 11:10:00,63.6,45.1,30.00,NNW,338,1.0,4.0,51,0.00,,,0.00,WeatherCatV1.10B1784,2013-03-16 18:10:00,
2013-03-16 11:15:00,63.6,45.1,30.00,NNW,338,1.0,4.0,51,0.00,,,0.00,WeatherCatV1.10B1784,2013-03-16 18:15:00,
2013-03-16 11:20:00,63.6,45.1,30.00,NNW,338,1.0,4.0,51,0.00,,,0.00,WeatherCatV1.10B1784,2013-03-16 18:20:00,
2013-03-16 11:25:00,63.6,45.1,30.00,NNW,338,1.0,4.0,51,0.00,,,0.00,WeatherCatV1.10B1784,2013-03-16 18:25:00,
2013-03-16 11:30:00,67.8,47.4,30.00,NNW,338,0.0,3.0,48,0.00,,,0.00,WeatherCatV1.10B1784,2013-03-16 18:30:00,
2013-03-16 11:35:00,67.8,47.4,30.00,NNW,338,0.0,3.0,48,0.00,,,0.00,WeatherCatV1.10B1784,2013-03-16 18:35:00,
2013-03-16 11:40:00,67.8,47.4,30.00,NNW,338,0.0,3.0,48,0.00,,,0.00,WeatherCatV1.10B1784,2013-03-16 18:40:00,
2013-03-16 11:45:00,67.8,47.4,30.00,NNW,338,0.0,3.0,48,0.00,,,0.00,WeatherCatV1.10B1784,2013-03-16 18:45:00,
2013-03-16 11:50:00,67.8,47.4,30.00,NNW,338,0.0,3.0,48,0.00,,,0.00,WeatherCatV1.10B1784,2013-03-16 18:50:00,
2013-03-16 11:55:00,69.9,49.9,30.00,SSE,158,0.0,3.0,49,0.00,,,0.00,WeatherCatV1.10B1784,2013-03-16 18:55:00,
2013-03-16 12:00:00,69.9,49.9,30.00,SSE,158,0.0,3.0,49,0.00,,,0.00,WeatherCatV1.10B1784,2013-03-16 19:00:00,
2013-03-16 12:05:00,69.9,49.9,30.00,SSE,158,0.0,3.0,49,0.00,,,0.00,WeatherCatV1.10B1784,2013-03-16 19:05:00,
2013-03-16 12:10:00,69.9,49.9,30.00,SSE,158,0.0,3.0,49,0.00,,,0.00,WeatherCatV1.10B1784,2013-03-16 19:10:00,
2013-03-16 12:15:00,69.9,49.9,30.00,SSE,158,0.0,3.0,49,0.00,,,0.00,WeatherCatV1.10B1784,2013-03-16 19:15:00,
2013-03-16 12:20:00,69.9,49.9,30.00,SSE,158,0.0,3.0,49,0.00,,,0.00,WeatherCatV1.10B1784,2013-03-16 19:20:00,
2013-03-16 12:25:00,69.9,49.9,30.00,SSE,158,0.0,3.0,49,0.00,,,0.00,WeatherCatV1.10B1784,2013-03-16 19:25:00,
2013-03-16 12:30:00,69.8,51.4,30.01,SE,135,0.0,3.0,52,0.00,,,0.00,WeatherCatV1.10B1784,2013-03-16 19:30:00,
2013-03-16 12:35:00,69.8,51.4,30.01,SE,135,0.0,3.0,52,0.00,,,0.00,WeatherCatV1.10B1784,2013-03-16 19:35:00,
2013-03-16 12:40:00,69.8,51.4,30.01,SE,135,0.0,3.0,52,0.00,,,0.00,WeatherCatV1.10B1784,2013-03-16 19:40:00,
2013-03-16 12:45:00,69.8,51.4,30.01,SE,135,0.0,3.0,52,0.00,,,0.00,WeatherCatV1.10B1784,2013-03-16 19:45:00,
2013-03-16 12:50:00,69.8,51.4,30.01,SE,135,0.0,3.0,52,0.00,,,0.00,WeatherCatV1.10B1784,2013-03-16 19:50:00,
2013-03-16 12:55:00,69.8,51.4,30.01,SE,135,0.0,3.0,52,0.00,,,0.00,WeatherCatV1.10B1784,2013-03-16 19:55:00,
2013-03-16 13:00:00,69.2,45.7,30.01,NNW,338,1.0,8.0,43,0.00,,,0.00,WeatherCatV1.10B1784,2013-03-16 20:00:00,
2013-03-16 13:05:00,69.2,45.7,30.01,NNW,338,1.0,8.0,43,0.00,,,0.00,WeatherCatV1.10B1784,2013-03-16 20:05:00,
2013-03-16 13:10:00,69.2,45.7,30.01,NNW,338,1.0,8.0,43,0.00,,,0.00,WeatherCatV1.10B1784,2013-03-16 20:10:00,
2013-03-16 13:15:00,69.2,45.7,30.01,NNW,338,1.0,8.0,43,0.00,,,0.00,WeatherCatV1.10B1784,2013-03-16 20:15:00,
2013-03-16 13:20:00,69.2,45.7,30.01,NNW,338,1.0,8.0,43,0.00,,,0.00,WeatherCatV1.10B1784,2013-03-16 20:20:00,
2013-03-16 13:25:00,69.2,45.7,30.01,NNW,338,1.0,8.0,43,0.00,,,0.00,WeatherCatV1.10B1784,2013-03-16 20:25:00,
2013-03-16 13:30:00,67.8,43.2,30.04,NNW,338,2.0,9.0,41,0.00,,,0.00,WeatherCatV1.10B1784,2013-03-16 20:30:00,
2013-03-16 13:35:00,67.8,43.2,30.04,NNW,338,2.0,9.0,41,0.00,,,0.00,WeatherCatV1.10B1784,2013-03-16 20:35:00,
2013-03-16 13:40:00,67.8,43.2,30.04,NNW,338,2.0,9.0,41,0.00,,,0.00,WeatherCatV1.10B1784,2013-03-16 20:40:00,
2013-03-16 13:45:00,67.8,43.2,30.04,NNW,338,2.0,9.0,41,0.00,,,0.00,WeatherCatV1.10B1784,2013-03-16 20:45:00,
2013-03-16 13:50:00,67.8,43.2,30.04,NNW,338,2.0,9.0,41,0.00,,,0.00,WeatherCatV1.10B1784,2013-03-16 20:50:00,
2013-03-16 13:55:00,67.8,43.2,30.04,NNW,338,2.0,9.0,41,0.00,,,0.00,WeatherCatV1.10B1784,2013-03-16 20:55:00,
2013-03-16 14:00:00,68.3,36.5,30.02,NNW,338,2.0,8.0,31,0.00,,,0.00,WeatherCatV1.10B1784,2013-03-16 21:00:00,
2013-03-16 14:05:00,68.3,36.5,30.02,NNW,338,2.0,8.0,31,0.00,,,0.00,WeatherCatV1.10B1784,2013-03-16 21:05:00,
2013-03-16 14:10:00,68.3,36.5,30.02,NNW,338,2.0,8.0,31,0.00,,,0.00,WeatherCatV1.10B1784,2013-03-16 21:10:00,
2013-03-16 14:15:00,68.3,36.5,30.02,NNW,338,2.0,8.0,31,0.00,,,0.00,WeatherCatV1.10B1784,2013-03-16 21:15:00,
2013-03-16 14:20:00,68.3,36.5,30.02,NNW,338,2.0,8.0,31,0.00,,,0.00,WeatherCatV1.10B1784,2013-03-16 21:20:00,
2013-03-16 14:25:00,69.5,39.1,30.01,NNW,338,2.0,7.0,33,0.00,,,0.00,WeatherCatV1.10B1784,2013-03-16 21:25:00,
2013-03-16 14:30:00,69.5,39.1,30.01,NNW,338,2.0,7.0,33,0.00,,,0.00,WeatherCatV1.10B1784,2013-03-16 21:30:00,
2013-03-16 14:35:00,69.5,39.1,30.01,NNW,338,2.0,7.0,33,0.00,,,0.00,WeatherCatV1.10B1784,2013-03-16 21:35:00,
2013-03-16 14:40:00,69.5,39.1,30.01,NNW,338,2.0,7.0,33,0.00,,,0.00,WeatherCatV1.10B1784,2013-03-16 21:40:00,
2013-03-16 14:45:00,69.5,39.1,30.01,NNW,338,2.0,7.0,33,0.00,,,0.00,WeatherCatV1.10B1784,2013-03-16 21:45:00,
2013-03-16 14:50:00,69.5,39.1,30.01,NNW,338,2.0,7.0,33,0.00,,,0.00,WeatherCatV1.10B1784,2013-03-16 21:50:00,
2013-03-16 14:55:00,68.3,38.1,29.99,NNW,338,2.0,12.0,33,0.00,,,0.00,WeatherCatV1.10B1784,2013-03-16 21:55:00,
2013-03-16 15:00:00,68.3,38.1,29.99,NNW,338,2.0,12.0,33,0.00,,,0.00,WeatherCatV1.10B1784,2013-03-16 22:00:00,
2013-03-16 15:05:00,68.3,38.1,29.99,NNW,338,2.0,12.0,33,0.00,,,0.00,WeatherCatV1.10B1784,2013-03-16 22:05:00,
2013-03-16 15:10:00,68.3,38.1,29.99,NNW,338,2.0,12.0,33,0.00,,,0.00,WeatherCatV1.10B1784,2013-03-16 22:10:00,
2013-03-16 15:15:00,68.3,38.1,29.99,NNW,338,2.0,12.0,33,0.00,,,0.00,WeatherCatV1.10B1784,2013-03-16 22:15:00,
2013-03-16 15:20:00,68.3,38.1,29.99,NNW,338,2.0,12.0,33,0.00,,,0.00,WeatherCatV1.10B1784,2013-03-16 22:20:00,
2013-03-16 15:25:00,68.3,38.1,29.99,NNW,338,2.0,12.0,33,0.00,,,0.00,WeatherCatV1.10B1784,2013-03-16 22:25:00,
2013-03-16 15:30:00,67.7,39.8,29.98,NNW,338,2.0,12.0,36,0.00,,,0.00,WeatherCatV1.10B1784,2013-03-16 22:30:00,
2013-03-16 15:35:00,67.7,39.8,29.98,NNW,338,2.0,12.0,36,0.00,,,0.00,WeatherCatV1.10B1784,2013-03-16 22:35:00,
2013-03-16 15:40:00,67.7,39.8,29.98,NNW,338,2.0,12.0,36,0.00,,,0.00,WeatherCatV1.10B1784,2013-03-16 22:40:00,
2013-03-16 15:45:00,67.7,39.8,29.98,NNW,338,2.0,12.0,36,0.00,,,0.00,WeatherCatV1.10B1784,2013-03-16 22:45:00,
2013-03-16 15:50:00,67.7,39.8,29.98,NNW,338,2.0,12.0,36,0.00,,,0.00,WeatherCatV1.10B1784,2013-03-16 22:50:00,
2013-03-16 15:55:00,67.7,39.8,29.98,NNW,338,2.0,12.0,36,0.00,,,0.00,WeatherCatV1.10B1784,2013-03-16 22:55:00,
2013-03-16 16:00:00,67.6,36.7,29.99,NNW,338,2.0,9.0,32,0.00,,,0.00,WeatherCatV1.10B1784,2013-03-16 23:00:00,
2013-03-16 16:05:00,67.6,36.7,29.99,NNW,338,2.0,9.0,32,0.00,,,0.00,WeatherCatV1.10B1784,2013-03-16 23:05:00,
2013-03-16 16:10:00,67.6,36.7,29.99,NNW,338,2.0,9.0,32,0.00,,,0.00,WeatherCatV1.10B1784,2013-03-16 23:10:00,
2013-03-16 16:15:00,67.6,36.7,29.99,NNW,338,2.0,9.0,32,0.00,,,0.00,WeatherCatV1.10B1784,2013-03-16 23:15:00,
2013-03-16 16:20:00,67.6,36.7,29.99,NNW,338,2.0,9.0,32,0.00,,,0.00,WeatherCatV1.10B1784,2013-03-16 23:20:00,
2013-03-16 16:25:00,67.2,42.0,29.98,NNW,338,2.0,12.0,40,0.00,,,0.00,WeatherCatV1.10B1784,2013-03-16 23:25:00,
2013-03-16 16:30:00,67.2,42.0,29.98,NNW,338,2.0,12.0,40,0.00,,,0.00,WeatherCatV1.10B1784,2013-03-16 23:30:00,
2013-03-16 16:35:00,67.2,42.0,29.98,NNW,338,2.0,12.0,40,0.00,,,0.00,WeatherCatV1.10B1784,2013-03-16 23:35:00,
2013-03-16 16:40:00,67.2,42.0,29.98,NNW,338,2.0,12.0,40,0.00,,,0.00,WeatherCatV1.10B1784,2013-03-16 23:40:00,
2013-03-16 16:45:00,67.2,42.0,29.98,NNW,338,2.0,12.0,40,0.00,,,0.00,WeatherCatV1.10B1784,2013-03-16 23:45:00,
2013-03-16 16:50:00,67.2,42.0,29.98,NNW,338,2.0,12.0,40,0.00,,,0.00,WeatherCatV1.10B1784,2013-03-16 23:50:00,
2013-03-16 16:55:00,67.2,42.0,29.98,NNW,338,2.0,12.0,40,0.00,,,0.00,WeatherCatV1.10B1784,2013-03-16 23:55:00,
2013-03-16 17:00:00,67.0,41.9,29.98,NNW,338,1.0,8.0,40,0.00,,,0.00,WeatherCatV1.10B1784,2013-03-17 00:00:00,
2013-03-16 17:05:00,67.0,41.9,29.98,NNW,338,1.0,8.0,40,0.00,,,0.00,WeatherCatV1.10B1784,2013-03-17 00:05:00,
2013-03-16 17:10:00,67.0,41.9,29.98,NNW,338,1.0,8.0,40,0.00,,,0.00,WeatherCatV1.10B1784,2013-03-17 00:10:00,
2013-03-16 17:15:00,67.0,41.9,29.98,NNW,338,1.0,8.0,40,0.00,,,0.00,WeatherCatV1.10B1784,2013-03-17 00:15:00,
2013-03-16 17:20:00,67.0,41.9,29.98,NNW,338,1.0,8.0,40,0.00,,,0.00,WeatherCatV1.10B1784,2013-03-17 00:20:00,
2013-03-16 17:25:00,67.0,41.9,29.98,NNW,338,1.0,8.0,40,0.00,,,0.00,WeatherCatV1.10B1784,2013-03-17 00:25:00,
2013-03-16 17:30:00,65.9,40.2,29.98,NNW,338,1.0,9.0,39,0.00,,,0.00,WeatherCatV1.10B1784,2013-03-17 00:30:00,
2013-03-16 17:35:00,65.9,40.2,29.98,NNW,338,1.0,9.0,39,0.00,,,0.00,WeatherCatV1.10B1784,2013-03-17 00:35:00,
2013-03-16 17:40:00,65.9,40.2,29.98,NNW,338,1.0,9.0,39,0.00,,,0.00,WeatherCatV1.10B1784,2013-03-17 00:40:00,
2013-03-16 17:45:00,65.9,40.2,29.98,NNW,338,1.0,9.0,39,0.00,,,0.00,WeatherCatV1.10B1784,2013-03-17 00:45:00,
2013-03-16 17:50:00,65.9,40.2,29.98,NNW,338,1.0,9.0,39,0.00,,,0.00,WeatherCatV1.10B1784,2013-03-17 00:50:00,
2013-03-16 17:55:00,65.9,40.2,29.98,NNW,338,1.0,9.0,39,0.00,,,0.00,WeatherCatV1.10B1784,2013-03-17 00:55:00,
2013-03-16 18:00:00,64.4,40.2,29.98,NNW,338,1.0,7.0,41,0.00,,,0.00,WeatherCatV1.10B1784,2013-03-17 01:00:00,
2013-03-16 18:05:00,64.4,40.2,29.98,NNW,338,1.0,7.0,41,0.00,,,0.00,WeatherCatV1.10B1784,2013-03-17 01:05:00,
2013-03-16 18:10:00,64.4,40.2,29.98,NNW,338,1.0,7.0,41,0.00,,,0.00,WeatherCatV1.10B1784,2013-03-17 01:10:00,
2013-03-16 18:15:00,64.4,40.2,29.98,NNW,338,1.0,7.0,41,0.00,,,0.00,WeatherCatV1.10B1784,2013-03-17 01:15:00,
2013-03-16 18:20:00,64.4,40.2,29.98,NNW,338,1.0,7.0,41,0.00,,,0.00,WeatherCatV1.10B1784,2013-03-17 01:20:00,
2013-03-16 18:25:00,64.4,40.2,29.98,NNW,338,1.0,7.0,41,0.00,,,0.00,WeatherCatV1.10B1784,2013-03-17 01:25:00,
2013-03-16 18:30:00,62.8,38.1,29.98,NNW,338,2.0,11.0,40,0.00,,,0.00,WeatherCatV1.10B1784,2013-03-17 01:30:00,
2013-03-16 18:35:00,62.8,38.1,29.98,NNW,338,2.0,11.0,40,0.00,,,0.00,WeatherCatV1.10B1784,2013-03-17 01:35:00,
2013-03-16 18:40:00,62.8,38.1,29.98,NNW,338,2.0,11.0,40,0.00,,,0.00,WeatherCatV1.10B1784,2013-03-17 01:40:00,
2013-03-16 18:45:00,62.8,38.1,29.98,NNW,338,2.0,11.0,40,0.00,,,0.00,WeatherCatV1.10B1784,2013-03-17 01:45:00,
2013-03-16 18:50:00,62.8,38.1,29.98,NNW,338,2.0,11.0,40,0.00,,,0.00,WeatherCatV1.10B1784,2013-03-17 01:50:00,
2013-03-16 18:55:00,62.8,38.1,29.98,NNW,338,2.0,11.0,40,0.00,,,0.00,WeatherCatV1.10B1784,2013-03-17 01:55:00,
2013-03-16 19:00:00,60.8,39.3,29.98,NNW,338,2.0,10.0,45,0.00,,,0.00,WeatherCatV1.10B1784,2013-03-17 02:00:00,
2013-03-16 19:05:00,60.8,39.3,29.98,NNW,338,2.0,10.0,45,0.00,,,0.00,WeatherCatV1.10B1784,2013-03-17 02:05:00,
2013-03-16 19:10:00,60.8,39.3,29.98,NNW,338,2.0,10.0,45,0.00,,,0.00,WeatherCatV1.10B1784,2013-03-17 02:10:00,
2013-03-16 19:15:00,60.8,39.3,29.98,NNW,338,2.0,10.0,45,0.00,,,0.00,WeatherCatV1.10B1784,2013-03-17 02:15:00,
2013-03-16 19:20:00,60.8,39.3,29.98,NNW,338,2.0,10.0,45,0.00,,,0.00,WeatherCatV1.10B1784,2013-03-17 02:20:00,
2013-03-16 19:25:00,60.8,39.3,29.98,NNW,338,2.0,10.0,45,0.00,,,0.00,WeatherCatV1.10B1784,2013-03-17 02:25:00,
2013-03-16 19:30:00,59.5,39.3,29.98,NNW,338,2.0,8.0,47,0.00,,,0.00,WeatherCatV1.10B1784,2013-03-17 02:30:00,
2013-03-16 19:35:00,59.5,39.3,29.98,NNW,338,2.0,8.0,47,0.00,,,0.00,WeatherCatV1.10B1784,2013-03-17 02:35:00,
2013-03-16 19:40:00,59.5,39.3,29.98,NNW,338,2.0,8.0,47,0.00,,,0.00,WeatherCatV1.10B1784,2013-03-17 02:40:00,
2013-03-16 19:45:00,59.5,39.3,29.98,NNW,338,2.0,8.0,47,0.00,,,0.00,WeatherCatV1.10B1784,2013-03-17 02:45:00,
2013-03-16 19:50:00,59.5,39.3,29.98,NNW,338,2.0,8.0,47,0.00,,,0.00,WeatherCatV1.10B1784,2013-03-17 02:50:00,
2013-03-16 19:55:00,59.5,39.3,29.98,NNW,338,2.0,8.0,47,0.00,,,0.00,WeatherCatV1.10B1784,2013-03-17 02:55:00,
2013-03-16 20:00:00,57.8,38.2,29.98,NNW,338,2.0,7.0,48,0.00,,,0.00,WeatherCatV1.10B1784,2013-03-17 03:00:00,
2013-03-16 20:05:00,57.8,38.2,29.98,NNW,338,2.0,7.0,48,0.00,,,0.00,WeatherCatV1.10B1784,2013-03-17 03:05:00,
2013-03-16 20:10:00,57.8,38.2,29.98,NNW,338,2.0,7.0,48,0.00,,,0.00,WeatherCatV1.10B1784,2013-03-17 03:10:00,
2013-03-16 20:15:00,57.8,38.2,29.98,NNW,338,2.0,7.0,48,0.00,,,0.00,WeatherCatV1.10B1784,2013-03-17 03:15:00,
2013-03-16 20:20:00,57.8,38.2,29.98,NNW,338,2.0,7.0,48,0.00,,,0.00,WeatherCatV1.10B1784,2013-03-17 03:20:00,
2013-03-16 20:25:00,57.8,38.2,29.98,NNW,338,2.0,7.0,48,0.00,,,0.00,WeatherCatV1.10B1784,2013-03-17 03:25:00,
2013-03-16 20:30:00,56.7,37.2,29.98,NNW,338,4.0,9.0,48,0.00,,,0.00,WeatherCatV1.10B1784,2013-03-17 03:30:00,
2013-03-16 20:35:00,56.7,37.2,29.98,NNW,338,4.0,9.0,48,0.00,,,0.00,WeatherCatV1.10B1784,2013-03-17 03:35:00,
2013-03-16 20:40:00,56.7,37.2,29.98,NNW,338,4.0,9.0,48,0.00,,,0.00,WeatherCatV1.10B1784,2013-03-17 03:40:00,
2013-03-16 20:45:00,56.7,37.2,29.98,NNW,338,4.0,9.0,48,0.00,,,0.00,WeatherCatV1.10B1784,2013-03-17 03:45:00,
2013-03-16 20:50:00,56.7,37.2,29.98,NNW,338,4.0,9.0,48,0.00,,,0.00,WeatherCatV1.10B1784,2013-03-17 03:50:00,
2013-03-16 20:55:00,56.2,34.6,29.99,NNW,338,4.0,10.0,44,0.00,,,0.00,WeatherCatV1.10B1784,2013-03-17 03:55:00,
2013-03-16 21:00:00,56.2,34.6,29.99,NNW,338,4.0,10.0,44,0.00,,,0.00,WeatherCatV1.10B1784,2013-03-17 04:00:00,
2013-03-16 21:05:00,56.2,34.6,29.99,NNW,338,4.0,10.0,44,0.00,,,0.00,WeatherCatV1.10B1784,2013-03-17 04:05:00,
2013-03-16 21:10:00,56.2,34.6,29.99,NNW,338,4.0,10.0,44,0.00,,,0.00,WeatherCatV1.10B1784,2013-03-17 04:10:00,
2013-03-16 21:15:00,56.2,34.6,29.99,NNW,338,4.0,10.0,44,0.00,,,0.00,WeatherCatV1.10B1784,2013-03-17 04:15:00,
2013-03-16 21:20:00,56.2,34.6,29.99,NNW,338,4.0,10.0,44,0.00,,,0.00,WeatherCatV1.10B1784,2013-03-17 04:20:00,
2013-03-16 21:25:00,56.2,34.6,29.99,NNW,338,4.0,10.0,44,0.00,,,0.00,WeatherCatV1.10B1784,2013-03-17 04:25:00,
2013-03-16 21:30:00,56.3,34.1,29.99,NNW,338,5.0,13.0,43,0.00,,,0.00,WeatherCatV1.10B1784,2013-03-17 04:30:00,
2013-03-16 21:35:00,56.3,34.1,29.99,NNW,338,5.0,13.0,43,0.00,,,0.00,WeatherCatV1.10B1784,2013-03-17 04:35:00,
2013-03-16 21:40:00,56.3,34.1,29.99,NNW,338,5.0,13.0,43,0.00,,,0.00,WeatherCatV1.10B1784,2013-03-17 04:40:00,
2013-03-16 21:45:00,56.3,34.1,29.99,NNW,338,5.0,13.0,43,0.00,,,0.00,WeatherCatV1.10B1784,2013-03-17 04:45:00,
2013-03-16 21:50:00,56.3,34.1,29.99,NNW,338,5.0,13.0,43,0.00,,,0.00,WeatherCatV1.10B1784,2013-03-17 04:50:00,
2013-03-16 21:55:00,56.3,34.1,29.99,NNW,338,5.0,13.0,43,0.00,,,0.00,WeatherCatV1.10B1784,2013-03-17 04:55:00,
2013-03-16 22:00:00,56.3,34.1,30.00,NNW,338,4.0,10.0,43,0.00,,,0.00,WeatherCatV1.10B1784,2013-03-17 05:00:00,
2013-03-16 22:05:00,56.3,34.1,30.00,NNW,338,4.0,10.0,43,0.00,,,0.00,WeatherCatV1.10B1784,2013-03-17 05:05:00,
2013-03-16 22:10:00,56.3,34.1,30.00,NNW,338,4.0,10.0,43,0.00,,,0.00,WeatherCatV1.10B1784,2013-03-17 05:10:00,
2013-03-16 22:15:00,56.3,34.1,30.00,NNW,338,4.0,10.0,43,0.00,,,0.00,WeatherCatV1.10B1784,2013-03-17 05:15:00,
2013-03-16 22:20:00,56.3,34.1,30.00,NNW,338,4.0,10.0,43,0.00,,,0.00,WeatherCatV1.10B1784,2013-03-17 05:20:00,
2013-03-16 22:25:00,55.5,35.6,30.02,NNW,338,5.0,14.0,47,0.00,,,0.00,WeatherCatV1.10B1784,2013-03-17 05:25:00,
2013-03-16 22:30:00,55.5,35.6,30.02,NNW,338,5.0,14.0,47,0.00,,,0.00,WeatherCatV1.10B1784,2013-03-17 05:30:00,
2013-03-16 22:35:00,55.5,35.6,30.02,NNW,338,5.0,14.0,47,0.00,,,0.00,WeatherCatV1.10B1784,2013-03-17 05:35:00,
2013-03-16 22:40:00,55.5,35.6,30.02,NNW,338,5.0,14.0,47,0.00,,,0.00,WeatherCatV1.10B1784,2013-03-17 05:40:00,
2013-03-16 22:45:00,55.5,35.6,30.02,NNW,338,5.0,14.0,47,0.00,,,0.00,WeatherCatV1.10B1784,2013-03-17 05:45:00,
2013-03-16 22:50:00,55.5,35.6,30.02,NNW,338,5.0,14.0,47,0.00,,,0.00,WeatherCatV1.10B1784,2013-03-17 05:50:00,
2013-03-16 22:55:00,54.3,35.5,30.01,NNW,338,3.0,11.0,49,0.00,,,0.00,WeatherCatV1.10B1784,2013-03-17 05:55:00,
2013-03-16 23:00:00,54.3,35.5,30.01,NNW,338,3.0,11.0,49,0.00,,,0.00,WeatherCatV1.10B1784,2013-03-17 06:00:00,
2013-03-16 23:05:00,54.3,35.5,30.01,NNW,338,3.0,11.0,49,0.00,,,0.00,WeatherCatV1.10B1784,2013-03-17 06:05:00,
2013-03-16 23:10:00,54.3,35.5,30.01,NNW,338,3.0,11.0,49,0.00,,,0.00,WeatherCatV1.10B1784,2013-03-17 06:10:00,
2013-03-16 23:15:00,54.3,35.5,30.01,NNW,338,3.0,11.0,49,0.00,,,0.00,WeatherCatV1.10B1784,2013-03-17 06:15:00,
2013-03-16 23:20:00,54.3,35.5,30.01,NNW,338,3.0,11.0,49,0.00,,,0.00,WeatherCatV1.10B1784,2013-03-17 06:20:00,
2013-03-16 23:25:00,54.3,35.5,30.01,NNW,338,3.0,11.0,49,0.00,,,0.00,WeatherCatV1.10B1784,2013-03-17 06:25:00,
2013-03-16 23:30:00,54.4,35.6,30.02,NNW,338,2.0,7.0,49,0.00,,,0.00,WeatherCatV1.10B1784,2013-03-17 06:30:00,
2013-03-16 23:35:00,54.4,35.6,30.02,NNW,338,2.0,7.0,49,0.00,,,0.00,WeatherCatV1.10B1784,2013-03-17 06:35:00,
2013-03-16 23:40:00,54.4,35.6,30.02,NNW,338,2.0,7.0,49,0.00,,,0.00,WeatherCatV1.10B1784,2013-03-17 06:40:00,
2013-03-16 23:45:00,54.4,35.6,30.02,NNW,338,2.0,7.0,49,0.00,,,0.00,WeatherCatV1.10B1784,2013-03-17 06:45:00,
2013-03-16 23:50:00,54.4,35.6,30.02,NNW,338,2.0,7.0,49,0.00,,,0.00,WeatherCatV1.10B1784,2013-03-17 06:50:00,
2013-03-16 23:55:00,54.4,35.6,30.02,NNW,338,2.0,7.0,49,0.00,,,0.00,WeatherCatV1.10B1784,2013-03-17 06:55:00,